Location: Austin
(30.3000°N, 97.7500°W)
Time: 11:16:20
(UTC-05:00)

Cosmos 972 Rocket - Pass Details

Date: 03 April 2024
Orbit: 713 x 1150 km, 75.8° (Epoch: 22 April)

Event Time Altitude Azimuth Distance (km) Brightness Sun altitude
Exits shadow 04:57:54 88° 144° (SE) 958 4.3 -29.5°
Maximum altitude 04:57:57 88° 104° (ESE) 957 4.3 -29.5°
Drops below altitude 10° 05:03:48 10° 14° (NNE) 2,531 7.1 -28.4°
Sets 05:06:07 0° 15° (NNE) 3,411 7.9 -27.9°
